Wind_Speed
12 13 14 16 18 21 24 25 23 20 19 19 18 17 16 15 14 13 13 12 11 11 11 12 12 12 13 13 13 13 13 13 13 13 13 13 13 14 14 14 13 13
11 12 14 16 18 21 23 24 21 19 19 18 17 16 16 14 13 12 11 10 10 10 10 11 11 11 12 12 13 13 14 14 14 13 13 13 13 13 13 13 14 14
10 11 14 16 18 21 23 22 20 19 18 17 16 15 15 14 13 12 11 10 9 9 10 10 11 11 12 12 12 13 13 13 13 13 14 14 14 14 14 14 13 13
9 11 13 16 18 20 22 20 18 18 17 16 15 14 14 13 12 11 10 9 9 9 10 11 11 11 11 12 12 13 13 13 13 13 14 15 16 16 16 16 15 14
9 11 14 16 18 20 20 18 17 17 16 16 15 14 13 12 11 10 9 8 8 9 10 11 11 11 12 12 13 13 13 13 13 14 14 15 15 15 16 16 16 16
9 11 14 16 18 19 18 17 17 16 16 15 15 13 11 10 10 10 10 9 8 9 10 10 11 12 12 13 13 13 13 13 13 13 13 13 14 14 15 16 17 17
10 12 14 16 19 19 17 16 16 16 15 15 14 12 10 9 9 10 10 9 9 9 10 10 11 12 12 12 12 13 13 12 13 13 13 13 13 13 14 15 16 17
10 12 14 17 19 18 16 16 16 15 15 14 13 11 10 9 9 10 9 8 8 9 10 10 11 11 12 12 12 12 12 12 12 13 13 13 13 13 13 14 15 16
10 13 15 18 19 17 16 15 15 14 14 13 12 11 9 8 8 9 8 8 8 9 10 10 11 11 12 12 12 12 12 13 13 13 13 13 13 13 13 14 14 15
11 14 17 19 18 17 16 15 15 14 13 12 11 10 9 8 8 8 7 7 9 10 11 11 11 11 11 12 12 12 12 12 12 13 13 14 14 13 13 13 13 14
12 15 18 18 17 15 14 14 14 13 12 11 11 10 9 8 7 7 6 8 10 10 11 12 11 11 11 12 12 12 12 12 12 13 13 14 14 14 14 14 14 14
14 16 18 17 14 13 13 13 13 12 11 11 10 10 9 7 7 6 6 8 10 10 11 11 11 11 11 11 12 12 12 12 12 13 14 15 15 15 14 14 15 15
15 17 17 15 13 12 12 12 11 10 10 10 9 9 8 7 6 5 6 8 9 9 10 10 10 11 11 12 12 12 12 12 13 13 14 15 15 15 15 15 15 15
17 17 15 13 12 12 11 11 10 9 9 9 8 7 7 7 5 4 6 7 8 8 9 9 10 10 10 11 12 12 12 12 13 13 13 14 15 16 16 16 16 16
17 15 14 12 11 10 10 10 9 8 9 8 7 6 6 6 3 3 5 6 7 8 9 9 9 9 9 10 11 12 13 13 13 13 13 14 15 16 17 17 17 17
14 12 12 12 10 9 8 9 8 8 8 7 6 6 5 4 2 3 4 5 6 7 8 9 9 9 9 9 9 10 12 13 13 13 14 14 15 16 17 17 17 17
11 10 10 10 9 7 7 8 8 8 8 6 5 5 3 2 1 1 2 3 4 6 7 8 8 9 10 9 9 9 11 12 13 14 15 15 15 15 16 17 17 17
10 10 9 8 7 6 6 7 8 8 7 5 4 4 2 2 2 1 0 2 3 4 5 7 8 9 10 10 10 9 10 12 14 15 15 15 15 15 16 16 17 17
9 9 9 7 6 6 6 7 7 7 5 4 4 4 2 2 2 2 1 2 3 4 5 6 7 9 10 11 10 10 11 13 14 15 15 15 16 16 16 16 17 17
9 9 8 7 6 6 6 7 7 6 4 4 4 3 1 1 1 1 1 3 4 5 6 6 7 9 10 11 11 12 13 13 14 15 15 16 16 16 16 16 17 17
9 9 8 7 6 6 6 6 6 5 4 4 4 1 0 1 2 3 3 4 5 5 6 7 8 10 11 12 12 13 13 13 14 15 15 15 15 16 16 16 16 16
8 8 8 7 6 6 5 5 5 4 4 4 3 1 0 1 2 2 3 4 4 4 5 7 9 10 12 13 14 14 14 13 13 14 14 15 15 16 16 15 15 16
8 7 7 7 6 5 5 5 5 4 5 4 2 1 1 1 1 1 2 3 4 4 5 7 9 11 12 14 15 14 13 13 13 13 13 14 15 15 14 14 15 15
9 7 7 6 6 5 5 5 5 5 5 4 2 2 2 2 2 1 2 3 4 5 6 7 9 11 12 13 14 13 13 13 13 12 12 13 14 14 13 14 15 15
10 7 6 6 6 6 5 5 5 5 5 4 3 2 2 3 3 2 3 4 4 5 7 8 9 11 12 13 13 13 13 13 13 12 12 13 14 13 12 13 15 15
10 7 6 6 6 6 5 5 5 5 5 4 3 3 3 3 2 2 3 4 4 6 7 8 9 11 12 12 12 13 13 13 13 12 12 13 14 13 12 13 14 15
Wind_Direction
312 321 323 321 320 320 320 323 324 325 329 332 330 328 328 327 325 327 330 334 339 345 351 356 356 354 353 352 352 350 349 350 349 349 349 346 342 338 337 335 333 330
306 316 320 318 317 318 320 322 323 324 327 327 325 324 324 321 321 325 328 332 340 350 358 1 359 356 355 357 356 355 355 355 356 355 355 353 350 346 343 341 339 336
304 316 317 314 314 317 320 320 320 321 323 322 322 323 321 318 320 323 328 334 344 356 5 7 5 1 1 3 2 0 359 359 358 357 357 356 353 351 348 347 345 342
308 316 313 310 312 317 318 316 316 318 318 318 320 320 318 317 320 323 329 337 349 2 9 12 10 7 5 5 5 3 2 2 1 0 0 358 354 352 350 349 348 346
306 311 308 308 312 317 315 312 314 316 316 317 318 317 315 317 322 327 332 339 353 6 13 14 12 9 7 5 5 6 5 4 4 4 3 359 356 354 351 348 346 345
302 306 305 307 312 315 313 311 314 315 316 318 317 314 315 319 329 334 334 339 353 8 14 14 12 10 8 6 7 8 7 5 5 6 4 0 357 354 350 348 345 344
298 301 302 306 312 314 313 313 314 315 318 318 314 312 315 322 333 336 334 337 353 8 13 12 11 9 7 7 10 10 8 5 5 6 5 2 359 355 352 349 347 346
294 297 301 307 312 313 313 313 314 316 317 314 310 309 312 319 330 332 330 339 355 7 11 11 10 8 6 8 11 10 9 7 6 6 5 4 3 360 357 355 351 348
293 298 304 310 313 313 312 311 313 315 314 309 307 306 305 311 322 323 326 346 3 8 10 11 10 8 6 8 9 8 8 8 7 6 5 5 5 4 1 358 355 351
295 301 306 310 311 310 309 310 311 312 310 306 303 300 298 304 314 316 328 358 13 13 12 11 10 8 6 6 6 7 8 8 6 5 5 4 4 4 3 360 357 355
298 303 306 307 307 305 305 307 308 309 306 301 298 294 293 301 308 314 339 9 18 18 14 9 6 7 6 4 3 4 8 9 5 4 4 2 1 2 2 0 358 357
300 303 305 304 302 301 303 306 307 306 300 294 293 290 290 296 302 317 356 16 20 20 16 9 5 6 7 6 3 1 6 10 7 4 3 1 359 358 360 0 359 358
302 304 305 303 301 302 304 306 305 301 295 291 290 288 289 291 297 326 8 19 20 20 18 13 9 9 9 8 4 0 3 9 8 5 2 359 357 357 358 358 357 357
304 305 304 302 302 303 302 302 301 296 289 286 287 288 283 280 293 343 13 16 19 20 19 17 15 15 14 12 6 359 1 7 7 4 1 359 358 357 357 357 355 354
304 303 302 299 297 297 299 301 298 291 285 284 286 281 269 269 300 4 15 14 15 17 19 17 14 14 15 16 11 1 359 4 4 1 359 359 358 357 355 355 353 351
301 299 298 294 290 292 298 300 293 284 281 282 280 272 268 280 323 4 17 21 19 17 18 14 9 7 6 8 10 4 0 1 1 359 357 356 356 355 353 352 351 349
299 296 292 288 288 295 297 290 281 273 271 273 269 261 263 284 302 335 19 38 33 25 18 10 3 0 357 357 1 3 1 359 357 356 354 352 353 353 352 350 349 348
300 298 292 285 288 291 286 276 269 266 268 269 257 238 207 172 188 215 306 32 38 31 21 9 358 352 351 353 356 357 355 352 352 352 350 348 349 351 351 349 347 347
303 300 291 285 282 273 266 265 262 262 268 262 243 228 186 153 175 203 250 3 22 25 21 10 355 346 348 351 352 352 349 347 346 347 346 345 346 348 351 350 347 347
302 297 286 277 271 260 255 259 257 257 260 246 236 232 170 140 247 301 1 12 14 17 15 3 348 344 345 345 345 345 346 345 344 344 344 343 344 347 350 350 348 347
304 294 280 264 257 253 250 255 256 253 250 243 237 236 50 319 324 342 1 7 7 7 4 350 341 342 342 338 335 337 342 345 344 343 343 342 344 348 350 351 351 351
309 291 274 258 251 251 252 255 258 251 245 246 241 205 222 284 304 334 352 356 357 358 352 341 337 339 339 334 329 331 338 344 345 345 344 343 345 349 352 354 355 355
313 290 272 261 253 255 258 258 256 245 241 246 238 195 209 244 258 310 344 343 345 348 342 334 333 335 334 330 327 330 338 345 348 348 347 345 346 350 354 357 359 359
318 296 274 263 256 259 263 257 250 241 239 239 223 197 213 240 259 303 327 324 330 337 336 333 331 331 330 329 329 334 344 350 352 352 350 348 349 352 356 359 1 1
321 302 274 260 257 260 260 252 246 240 238 237 223 208 226 252 277 303 309 312 324 333 334 335 333 330 330 331 335 343 351 354 355 356 353 352 352 353 356 360 1 2
321 304 271 254 254 259 255 246 242 239 240 242 233 223 235 257 288 313 320 328 338 335 331 333 333 329 330 335 342 350 355 356 357 355 353 353 355 355 355 357 360 2
Height
3188 3187 3186 3186 3186 3185 3184 3183 3182 3181 3180 3179 3178 3177 3177 3176 3176 3175 3174 3173 3172 3171 3170 3168 3166 3165 3164 3163 3163 3162 3161 3160 3159 3158 3156 3155 3154 3153 3152 3151 3150 3149
3187 3186 3185 3185 3185 3184 3183 3182 3181 3180 3180 3179 3178 3177 3176 3176 3176 3175 3174 3173 3172 3171 3169 3168 3166 3165 3164 3163 3162 3161 3160 3159 3158 3157 3156 3155 3154 3153 3152 3151 3149 3148
3186 3185 3184 3184 3184 3183 3182 3181 3180 3180 3179 3178 3178 3177 3176 3175 3175 3174 3174 3173 3172 3171 3169 3168 3166 3165 3164 3163 3162 3161 3160 3159 3158 3157 3155 3154 3153 3152 3151 3150 3149 3148
3184 3183 3183 3183 3183 3182 3181 3180 3179 3179 3178 3177 3177 3176 3176 3175 3174 3174 3173 3172 3171 3170 3168 3167 3166 3165 3164 3163 3162 3161 3160 3159 3158 3156 3155 3154 3153 3151 3150 3149 3148 3147
3183 3182 3182 3182 3182 3181 3180 3179 3178 3178 3177 3177 3176 3176 3175 3175 3174 3173 3172 3171 3171 3169 3168 3167 3166 3165 3164 3163 3162 3161 3160 3159 3157 3156 3155 3154 3152 3151 3150 3149 3147 3146
3181 3181 3181 3181 3181 3180 3179 3178 3177 3177 3176 3176 3176 3175 3175 3174 3173 3172 3171 3171 3170 3169 3168 3167 3166 3165 3164 3163 3162 3160 3159 3158 3157 3156 3155 3154 3152 3151 3150 3148 3147 3146
3180 3180 3180 3179 3179 3178 3177 3177 3176 3176 3175 3175 3175 3175 3174 3173 3172 3171 3171 3171 3169 3168 3168 3167 3166 3165 3164 3163 3162 3160 3159 3158 3157 3156 3155 3154 3152 3151 3149 3148 3146 3145
3179 3179 3178 3178 3177 3177 3176 3175 3175 3175 3174 3174 3174 3174 3173 3172 3171 3171 3171 3170 3169 3168 3167 3167 3166 3165 3164 3163 3161 3160 3159 3158 3157 3156 3155 3154 3152 3151 3149 3148 3146 3145
3177 3177 3177 3176 3176 3175 3174 3174 3174 3174 3174 3174 3173 3173 3172 3171 3171 3171 3171 3170 3168 3167 3167 3166 3166 3165 3163 3162 3161 3160 3159 3158 3157 3156 3154 3153 3152 3151 3150 3148 3146 3145
3176 3176 3175 3175 3174 3173 3173 3173 3173 3173 3173 3173 3173 3172 3171 3171 3171 3171 3170 3169 3168 3167 3166 3166 3165 3164 3163 3162 3161 3160 3158 3157 3156 3155 3154 3153 3152 3151 3150 3148 3146 3145
3175 3174 3174 3173 3173 3172 3172 3172 3172 3172 3172 3172 3172 3171 3171 3170 3170 3170 3169 3168 3167 3166 3165 3165 3165 3164 3163 3162 3160 3159 3158 3157 3156 3155 3154 3153 3152 3150 3149 3148 3146 3144
3173 3173 3173 3172 3171 3171 3171 3171 3171 3171 3171 3171 3171 3170 3170 3169 3170 3169 3168 3167 3166 3166 3165 3165 3164 3163 3162 3161 3160 3159 3158 3157 3155 3154 3153 3152 3151 3150 3148 3147 3145 3144
3172 3171 3171 3170 3170 3170 3170 3170 3170 3170 3170 3170 3170 3170 3169 3169 3169 3168 3167 3166 3166 3166 3165 3165 3164 3163 3162 3161 3160 3159 3157 3156 3155 3154 3153 3152 3150 3149 3147 3146 3144 3143
3170 3169 3169 3169 3169 3169 3169 3169 3169 3169 3169 3169 3169 3169 3169 3169 3168 3167 3166 3166 3166 3165 3165 3164 3164 3163 3162 3161 3160 3158 3157 3156 3155 3154 3153 3151 3150 3148 3147 3145 3144 3142
3168 3168 3168 3168 3168 3168 3168 3168 3168 3168 3168 3168 3168 3169 3169 3168 3167 3166 3165 3165 3165 3164 3164 3164 3163 3163 3162 3161 3160 3159 3157 3156 3155 3154 3152 3151 3149 3148 3146 3145 3143 3142
3167 3167 3167 3167 3167 3167 3167 3167 3167 3167 3168 3168 3168 3168 3168 3167 3166 3165 3165 3165 3164 3164 3164 3163 3163 3163 3162 3161 3160 3159 3158 3156 3155 3154 3152 3151 3149 3148 3146 3144 3143 3141
3166 3166 3166 3166 3166 3166 3166 3166 3167 3167 3167 3167 3167 3167 3166 3166 3165 3165 3164 3164 3164 3164 3163 3163 3163 3162 3162 3161 3160 3159 3158 3156 3155 3154 3152 3150 3149 3148 3146 3144 3143 3141
3165 3165 3165 3165 3165 3165 3166 3166 3166 3166 3166 3166 3166 3166 3166 3165 3164 3164 3164 3164 3163 3163 3163 3163 3162 3162 3162 3161 3160 3159 3158 3157 3155 3153 3152 3150 3149 3147 3146 3144 3142 3141
3164 3164 3164 3165 3165 3165 3165 3166 3166 3166 3165 3165 3165 3165 3164 3164 3163 3163 3163 3163 3163 3163 3162 3162 3162 3162 3161 3160 3160 3159 3158 3156 3155 3153 3151 3150 3148 3147 3145 3144 3142 3140
3164 3164 3164 3164 3164 3165 3165 3165 3165 3164 3164 3164 3164 3164 3163 3162 3162 3162 3162 3162 3162 3162 3161 3161 3161 3161 3160 3160 3159 3158 3157 3156 3154 3153 3151 3149 3148 3146 3145 3143 3141 3140
3163 3163 3163 3163 3164 3164 3164 3164 3164 3163 3163 3163 3163 3162 3161 3161 3161 3161 3161 3161 3161 3161 3161 3161 3161 3160 3160 3159 3159 3158 3157 3155 3154 3152 3151 3149 3147 3146 3144 3143 3141 3139
3163 3162 3162 3162 3162 3162 3162 3162 3162 3162 3162 3162 3161 3161 3161 3161 3161 3161 3161 3161 3161 3161 3161 3160 3160 3160 3159 3159 3158 3157 3156 3155 3153 3152 3150 3149 3147 3146 3144 3142 3141 3139
3162 3161 3161 3161 3161 3161 3161 3161 3161 3161 3161 3161 3160 3160 3160 3161 3161 3161 3161 3160 3160 3160 3160 3160 3160 3160 3159 3158 3157 3156 3155 3154 3153 3151 3150 3148 3147 3145 3144 3142 3141 3139
3160 3159 3159 3159 3159 3159 3159 3160 3160 3160 3160 3160 3159 3160 3160 3160 3160 3160 3160 3160 3160 3160 3160 3160 3160 3159 3159 3158 3157 3156 3155 3153 3152 3151 3150 3148 3147 3145 3144 3142 3141 3139
3157 3157 3157 3157 3158 3158 3158 3158 3159 3159 3159 3159 3159 3159 3159 3160 3160 3160 3160 3160 3160 3160 3159 3159 3159 3159 3158 3157 3156 3155 3154 3153 3152 3151 3150 3148 3147 3145 3144 3142 3141 3139
3156 3156 3156 3156 3156 3157 3157 3157 3158 3158 3158 3158 3158 3158 3159 3159 3160 3160 3159 3159 3159 3159 3159 3159 3158 3158 3158 3157 3156 3155 3153 3152 3151 3150 3149 3148 3146 3145 3144 3142 3141 3140